When you browse on this site, cookies collect data to enhance your experience and personalize the content and advertising you see.
Visit our Privacy Policy to learn more. By continuing to use the site, you agree to this use of cookies and data.
  • Em Portugal
  • Lista de países
  • Para 7 dias
  • Temperatura da água
  • Mapas de satélite
  • Mapa do tempo
  • Widgets de tempo
  • user-avatar
    Iniciar Sessão

    Previsão horária em Naftalan

    Hoje, 11 Dezembro, Terça-feira

    Tempo Temperatura Precipitação Vento Pressão Humidade
    00:00 +9°C° 0 mm 2 m/s 764 mmHg 83%
    01:00 +9°C° 0 mm 2 m/s 764 mmHg 83%
    02:00 +9°C° 0 mm 2 m/s 764 mmHg 84%
    03:00 +9°C° 0 mm 2 m/s 763 mmHg 82%
    04:00 +9°C° 0 mm 2 m/s 764 mmHg 81%
    05:00 +9°C° 0 mm 2 m/s 764 mmHg 80%
    06:00 +9°C° 0 mm 2 m/s 764 mmHg 79%
    07:00 +10°C° 0 mm 2 m/s 764 mmHg 76%
    08:00 +12°C° 0 mm 2 m/s 764 mmHg 72%
    09:00 +13°C° 0 mm 2 m/s 764 mmHg 68%
    10:00 +14°C° 0 mm 2 m/s 763 mmHg 64%
    11:00 +15°C° 0 mm 2 m/s 763 mmHg 59%
    12:00 +17°C° 0 mm 2 m/s 762 mmHg 55%
    13:00 +17°C° 0 mm 2 m/s 762 mmHg 55%
    14:00 +17°C° 0 mm 2 m/s 762 mmHg 55%
    15:00 +17°C° 0 mm 2 m/s 761 mmHg 55%
    16:00 +16°C° 0 mm 2 m/s 761 mmHg 58%
    17:00 +15°C° 0 mm 2 m/s 761 mmHg 62%
    18:00 +14°C° 0 mm 2 m/s 761 mmHg 65%
    19:00 +12°C° 0 mm 3 m/s 761 mmHg 64%
    20:00 +12°C° 0 mm 3 m/s 761 mmHg 64%
    21:00 +12°C° 0 mm 3 m/s 761 mmHg 63%
    22:00 +11°C° 0 mm 3 m/s 761 mmHg 61%
    23:00 +11°C° 0 mm 3 m/s 761 mmHg 59%

    Amanhã, 12 Dezembro, Quarta-feira

    Tempo Temperatura Precipitação Vento Pressão Humidade
    00:00 +11°C° 0 mm 4 m/s 761 mmHg 57%
    01:00 +11°C° 0 mm 4 m/s 761 mmHg 55%
    02:00 +11°C° 0 mm 4 m/s 761 mmHg 53%
    03:00 +10°C° 0 mm 4 m/s 761 mmHg 51%
    04:00 +10°C° 0 mm 4 m/s 762 mmHg 51%
    05:00 +10°C° 0 mm 4 m/s 762 mmHg 51%
    06:00 +10°C° 0 mm 4 m/s 762 mmHg 50%
    07:00 +11°C° 0 mm 4 m/s 763 mmHg 48%
    08:00 +12°C° 0 mm 4 m/s 763 mmHg 45%
    09:00 +13°C° 0 mm 4 m/s 763 mmHg 43%
    10:00 +16°C° 0 mm 3 m/s 763 mmHg 40%
    11:00 +17°C° 0 mm 3 m/s 762 mmHg 37%
    12:00 +18°C° 0 mm 2 m/s 762 mmHg 34%
    13:00 +18°C° 0 mm 3 m/s 761 mmHg 35%
    14:00 +18°C° 0 mm 3 m/s 760 mmHg 36%
    15:00 +18°C° 0 mm 3 m/s 760 mmHg 37%
    16:00 +17°C° 0 mm 4 m/s 760 mmHg 45%
    17:00 +15°C° 0 mm 5 m/s 760 mmHg 52%
    18:00 +13°C° 0 mm 6 m/s 759 mmHg 59%
    19:00 +13°C° 0 mm 6 m/s 759 mmHg 63%
    20:00 +13°C° 0 mm 6 m/s 759 mmHg 67%
    21:00 +11°C° 0 mm 6 m/s 759 mmHg 71%
    22:00 +12°C° 0 mm 5 m/s 759 mmHg 68%
    23:00 +10°C° 0 mm 5 m/s 759 mmHg 65%

    Depois de amanhã, 13 Dezembro, Quinta-feira

    Tempo Temperatura Precipitação Vento Pressão Humidade
    00:00 +11°C° 0 mm 4 m/s 759 mmHg 62%
    01:00 +11°C° 0 mm 4 m/s 759 mmHg 59%
    02:00 +10°C° 0 mm 4 m/s 759 mmHg 57%
    03:00 +10°C° 0 mm 4 m/s 759 mmHg 54%
    04:00 +10°C° 0 mm 4 m/s 759 mmHg 53%
    05:00 +10°C° 0 mm 4 m/s 759 mmHg 52%
    06:00 +10°C° 0 mm 4 m/s 759 mmHg 50%
    07:00 +11°C° 0 mm 4 m/s 760 mmHg 49%
    08:00 +12°C° 0 mm 4 m/s 760 mmHg 48%
    09:00 +12°C° 0 mm 4 m/s 761 mmHg 46%
    10:00 +14°C° 0 mm 5 m/s 761 mmHg 45%
    11:00 +15°C° 0 mm 5 m/s 761 mmHg 44%
    12:00 +16°C° 0 mm 5 m/s 761 mmHg 43%
    13:00 +16°C° 0 mm 5 m/s 762 mmHg 45%
    14:00 +16°C° 0 mm 5 m/s 762 mmHg 48%
    15:00 +15°C° 0 mm 6 m/s 762 mmHg 51%
    16:00 +14°C° 0 mm 6 m/s 763 mmHg 59%
    17:00 +13°C° 0 mm 6 m/s 764 mmHg 67%
    18:00 +11°C° 0 mm 6 m/s 765 mmHg 75%
    19:00 +10°C° 0 mm 6 m/s 765 mmHg 76%
    20:00 +10°C° 0 mm 5 m/s 766 mmHg 78%
    21:00 +10°C° 0 mm 5 m/s 767 mmHg 79%
    22:00 +9°C° 0 mm 5 m/s 767 mmHg 80%
    23:00 +10°C° 0 mm 4 m/s 768 mmHg 81%

    14 Dezembro, Sexta-feira

    Tempo Temperatura Precipitação Vento Pressão Humidade
    00:00 +8°C° 0 mm 4 m/s 768 mmHg 82%
    01:00 +8°C° 0 mm 4 m/s 769 mmHg 83%
    02:00 +8°C° 0 mm 4 m/s 769 mmHg 83%
    03:00 +7°C° 0 mm 4 m/s 770 mmHg 84%
    04:00 +8°C° 0 mm 3 m/s 770 mmHg 85%
    05:00 +8°C° 0 mm 3 m/s 770 mmHg 85%
    06:00 +8°C° 0 mm 3 m/s 771 mmHg 86%
    07:00 +9°C° 0 mm 3 m/s 771 mmHg 81%
    08:00 +9°C° 0 mm 3 m/s 772 mmHg 77%
    09:00 +10°C° 0 mm 3 m/s 772 mmHg 72%
    10:00 +11°C° 0 mm 3 m/s 772 mmHg 69%
    11:00 +11°C° 0 mm 3 m/s 772 mmHg 66%
    12:00 +12°C° 0 mm 3 m/s 771 mmHg 63%
    13:00 +12°C° 0.1 mm 3 m/s 771 mmHg 65%
    14:00 +11°C° 0.1 mm 4 m/s 771 mmHg 67%
    15:00 +11°C° 0.1 mm 4 m/s 770 mmHg 69%
    16:00 +11°C° 0.1 mm 4 m/s 771 mmHg 72%
    17:00 +11°C° 0.1 mm 4 m/s 771 mmHg 75%
    18:00 +10°C° 0.1 mm 4 m/s 771 mmHg 78%
    19:00 +10°C° 0.2 mm 4 m/s 771 mmHg 78%
    20:00 +10°C° 0.2 mm 4 m/s 771 mmHg 78%
    21:00 +10°C° 0.2 mm 4 m/s 771 mmHg 79%
    22:00 +10°C° 0.6 mm 4 m/s 771 mmHg 79%
    23:00 +10°C° 0.6 mm 4 m/s 771 mmHg 78%

    15 Dezembro, Sábado

    Tempo Temperatura Precipitação Vento Pressão Humidade
    00:00 +8°C° 0.6 mm 5 m/s 771 mmHg 78%
    01:00 +8°C° 0.6 mm 5 m/s 771 mmHg 75%
    02:00 +8°C° 0.6 mm 5 m/s 772 mmHg 72%
    03:00 +7°C° 0.6 mm 6 m/s 772 mmHg 70%
    04:00 +7°C° 0.1 mm 5 m/s 772 mmHg 68%
    05:00 +7°C° 0.1 mm 5 m/s 773 mmHg 67%
    06:00 +6°C° 0.1 mm 5 m/s 773 mmHg 65%
    07:00 +7°C° 0 mm 5 m/s 774 mmHg 62%
    08:00 +7°C° 0 mm 4 m/s 774 mmHg 58%
    09:00 +7°C° 0 mm 4 m/s 775 mmHg 55%
    10:00 +8°C° 0 mm 4 m/s 775 mmHg 54%
    11:00 +10°C° 0 mm 3 m/s 774 mmHg 53%
    12:00 +10°C° 0 mm 3 m/s 774 mmHg 52%
    13:00 +10°C° 0 mm 3 m/s 774 mmHg 50%
    14:00 +12°C° 0 mm 2 m/s 774 mmHg 48%
    15:00 +12°C° 0 mm 2 m/s 774 mmHg 46%
    16:00 +10°C° 0 mm 2 m/s 775 mmHg 50%
    17:00 +9°C° 0 mm 2 m/s 775 mmHg 54%
    18:00 +8°C° 0 mm 2 m/s 776 mmHg 57%
    19:00 +9°C° 0 mm 1 m/s 776 mmHg 58%
    20:00 +9°C° 0 mm 1 m/s 776 mmHg 60%
    21:00 +8°C° 0 mm 1 m/s 776 mmHg 61%
    22:00 +8°C° 0 mm 1 m/s 776 mmHg 61%
    23:00 +8°C° 0 mm 1 m/s 776 mmHg 61%

    16 Dezembro, Domingo

    Tempo Temperatura Precipitação Vento Pressão Humidade
    00:00 +8°C° 0 mm 1 m/s 776 mmHg 61%
    01:00 +6°C° 0 mm 2 m/s 776 mmHg 61%
    02:00 +6°C° 0 mm 2 m/s 776 mmHg 61%
    03:00 +6°C° 0 mm 2 m/s 776 mmHg 61%
    04:00 +7°C° 0 mm 2 m/s 776 mmHg 61%
    05:00 +7°C° 0 mm 2 m/s 776 mmHg 61%
    06:00 +7°C° 0 mm 2 m/s 776 mmHg 61%
    07:00 +7°C° 0 mm 2 m/s 776 mmHg 60%
    08:00 +8°C° 0 mm 3 m/s 776 mmHg 59%
    09:00 +9°C° 0 mm 3 m/s 777 mmHg 58%
    10:00 +9°C° 0 mm 3 m/s 776 mmHg 59%
    11:00 +9°C° 0 mm 3 m/s 775 mmHg 60%
    12:00 +10°C° 0 mm 3 m/s 775 mmHg 62%
    13:00 +10°C° 0.1 mm 3 m/s 775 mmHg 64%
    14:00 +10°C° 0.1 mm 4 m/s 774 mmHg 66%
    15:00 +10°C° 0.1 mm 4 m/s 774 mmHg 69%
    16:00 +8°C° 0.1 mm 4 m/s 774 mmHg 71%
    17:00 +8°C° 0.1 mm 4 m/s 774 mmHg 74%
    18:00 +8°C° 0.1 mm 4 m/s 775 mmHg 76%
    19:00 +8°C° 0.2 mm 4 m/s 774 mmHg 76%
    20:00 +8°C° 0.2 mm 4 m/s 774 mmHg 76%
    21:00 +8°C° 0.2 mm 4 m/s 774 mmHg 76%
    22:00 +8°C° 0.1 mm 4 m/s 774 mmHg 74%
    23:00 +7°C° 0.1 mm 4 m/s 774 mmHg 71%
    Mostrar mais